SEIBRANZ Weather Reports


Display with metric or nautical units.
time (UTC)temp
F
wind
direction
speed
MPH
gust
MPH
rain 1hr
in
rain 24hr
in
rain mn
in
humidity
%
barometer
mb
20260504130215 68 5 5.0 0.0 0.00 0.00 0.00 48 1010.9
20260504120210 67 36 10.0 0.0 0.00 0.00 0.00 51 1011.2
20260504110210 67 126 6.0 0.0 0.00 0.00 0.00 47 1011.6
20260504100212 67 112 13.0 0.0 0.00 0.00 0.00 56 1012.2
20260504080210 62 51 11.0 0.0 0.00 0.00 0.00 55 1013.3
20260504070212 57 60 7.0 0.0 0.00 0.00 0.00 62 1013.5
20260504060212 57 103 6.0 0.0 0.00 0.00 0.00 65 1013.4
20260504050210 46 113 6.0 0.0 0.00 0.00 0.00 87 1013.4
20260504043211 43 109 6.0 0.0 0.00 0.00 0.00 90 1013.2
20260504040211 42 107 2.0 0.0 0.00 0.00 0.00 90 1013.3
20260504033211 42 128 4.0 0.0 0.00 0.00 0.00 89 1013.6
20260504030212 45 123 0.0 0.0 0.00 0.00 0.00 87 1013.7
20260504023211 46 123 1.0 0.0 0.00 0.00 0.00 88 1013.7
20260504020212 47 157 0.0 0.0 0.00 0.00 0.00 86 1013.7
20260504013211 48 157 0.0 0.0 0.00 0.00 0.00 85 1013.8
20260504010211 48 157 1.0 0.0 0.00 0.00 0.00 82 1013.9
20260504003210 47 140 3.0 0.0 0.00 0.00 0.00 85 1014.1
20260504000208 46 167 3.0 0.0 0.00 0.00 0.00 83 1014.2
20260503233209 48 152 5.0 0.0 0.00 0.00 0.00 78 1014.4
20260503230209 51 200 5.0 0.0 0.00 0.00 0.00 72 1014.5
20260503223210 51 222 5.0 0.0 0.00 0.00 0.00 73 1014.4
20260503213210 52 220 6.0 0.0 0.00 0.00 0.00 70 1014.1
20260503210211 51 223 4.0 0.0 0.00 0.00 0.00 72 1013.9
20260503203209 54 186 4.0 0.0 0.00 0.00 0.00 67 1013.5
20260503200211 56 215 6.0 0.0 0.00 0.00 0.00 64 1013.2
20260503193210 56 205 6.0 0.0 0.00 0.00 0.00 65 1012.7
20260503190210 59 202 15.0 0.0 0.00 0.00 0.00 59 1012.2
20260503183209 61 195 14.0 0.0 0.00 0.00 0.00 57 1011.8
20260503180210 63 186 3.0 0.0 0.00 0.00 0.00 52 1011.5
20260503173209 65 258 4.0 0.0 0.00 0.00 0.00 47 1011.3
20260503170211 67 244 15.0 0.0 0.00 0.00 0.00 45 1011.7
20260503160211 71 209 7.0 0.0 0.00 0.00 0.00 41 1011.3
20260503150209 71 219 13.0 0.0 0.00 0.00 0.00 35 1011.6
20260503140210 73 226 8.0 0.0 0.00 0.00 0.00 37 1011.8